Location: Bruderhein
(53.8035°N, 112.9265°W)
Time: 03:38:41
(UTC+00:00)

NOAA 15 - Visible Passes

Search period start: 17 April 2024 00:00
Search period end: 27 April 2024 00:00
Orbit: 795 x 811 km, 98.6° (Epoch: 16 April)

Date Brightness Start Highest point End Pass type
(mag) Time Alt. Az. Time Alt. Az. Time Alt. Az.
17 Apr 7.3 03:42:14 10° SW 03:45:47 18° W 03:49:21 10° NW visible
18 Apr 6.8 03:15:19 10° SSW 03:19:48 28° W 03:24:17 10° NW visible
20 Apr 7.6 04:06:58 10° WSW 04:08:56 12° W 04:10:53 10° WNW visible
21 Apr 7.3 03:39:10 10° SW 03:42:51 19° W 03:46:32 10° NW visible
24 Apr 7.5 04:03:44 10° WSW 04:05:58 13° W 04:08:11 10° WNW visible
25 Apr 7.2 03:36:06 10° SW 03:39:53 20° W 03:43:41 10° NW visible
